Погода в Писковичах

Россия / Псковская область     57°51′42″N   28°12′48″E
темп.,
°C
ветер,
м/с
пор.,
м/с
влажн.,
%
обл.,
%
осадки,
мм/ч
давл.,
гПа
погр.,
м
9 марта, вт
вт900:00−11ссз369023 0.0 1018163
03:00−12сз249222 0.0 1019121
06:00−12сз239572 0.0 102065
09:00−11зсз119383 0.0 102077
12:00−7ююв117697 0.0 1021367
15:00−6ююв238198 0.1 1020449
18:00−6юв4793100 0.7 1020459
21:00−6вюв5895100 3.4 1020357
10 марта, ср
ср1000:00−8в51094100 3.2 1021428
03:00−10в61193100 4.9 1021430
06:00−11в61193100 1.3 1022476
09:00−12в51188100 1.4 1024462
12:00−10в61081100 0.1 1025553
15:00−7вюв5973100 0.1 1026737
18:00−8вюв5977100 0.0 1025625
21:00−10вюв51189100 0.1 1027531
11 марта, чт
чт1100:00−10юв51093100 0.5 1027508
03:00−11юв4993100 1.1 1026418
06:00−11юв499299 0.2 1026361
09:00−11ююв4993100 0.3 1026318
12:00−7ююв598898 0.0 1024406
15:00−2ю597984 0.0 1023843
18:00−3ююв4117921 0.0 1020586
21:00−5ююв6148311 0.0 1019517
12 марта, пт
пт1200:00−5ююв6158461 0.0 1017738
03:00−5ююв7158380 0.0 1015828
06:00−6ююв71679100 0.0 1012860
09:00−5ююв81680100 0.0 1010993
12:00−3ююв81581100 0.0 10081025
15:00−2ю91589100 0.6 10061175
18:00−2ю71393100 1.3 10051020
21:00−2ю61395100 2.3 1004728
13 марта, сб
сб1300:00−1ю51195100 0.6 1004391
03:00+1ююз41095100 0.8 1004426
06:00+1ююз51198100 0.1 1004568
09:00+1ююз51193100 0.2 1005614
12:00+1ююз51194100 0.0 1005703
15:00+2ююз51198100 0.8 1004737
18:00+2ю41293100 0.3 1003641
21:00+2ююз51199100 0.9 1002604